Regional Weather Roundup
Issued by NWS

Home | Current Version | Previous Version | Text Only | Print | Product List | Glossary Off
Versions: 1 2 3 4 5 6 7 8 9 10 11 12 13 14 15 16 17 18 19 20 21 22 23 24 25 26 27 28 29 30 31 32 33 34 35 36 37 38 39 40 41 42 43 44 45 46 47 48 49 50

000
ASUS43 KLOT 170508
RWRIL

ILLINOIS REGIONAL WEATHER ROUNDUP
NATIONAL WEATHER SERVICE CHICAGO/ROMEOVILLE IL
1200 AM CDT THU AUG 17 2017

NOTE: "FAIR" INDICATES FEW OR NO CLOUDS BELOW 12,000 FEET WITH NO
SIGNIFICANT WEATHER AND/OR OBSTRUCTIONS TO VISIBILITY.

* THESE STATIONS ARE NOT UNDER NWS QUALITY CONTROL. THEY ALSO MAY NOT
  REPORT WEATHER SUCH AS PRECIPITATION OR FOG.

ILZ001-002-007-009-015-016-024-170600-
NORTHWEST ILLINOIS

CITY           SKY/WX    TMP DP  RH WIND       PRES   REMARKS
MOLINE         PTCLDY    75  69  81 S13G21    29.75F
STERLING*      CLOUDY    74  73  97 VRB3      29.79S
SAVANNA*       CLOUDY    75  73  92 S9        29.75F
$$

ILZ003-004-008-010-011-017-018-170600-
NORTH CENTRAL ILLINOIS

CITY           SKY/WX    TMP DP  RH WIND       PRES   REMARKS
ROCKFORD       CLOUDY    77  73  87 S13       29.79F
FREEPORT*      CLOUDY    72  71  97 S7        29.80R
ROCHELLE*      CLOUDY    74  73  97 S9        29.80F
DE KALB*       PTCLDY    74  73  96 S14       29.82F
PERU*          CLOUDY    73  70  91 S10       29.81F
$$

ILZ005-006-012>014-019>023-170600-
NORTHEAST ILLINOIS

CITY           SKY/WX    TMP DP  RH WIND       PRES   REMARKS
CHICAGO-OHARE  CLOUDY    77  73  87 S13       29.81F
CHICAGO-MIDWAY CLOUDY    80  73  79 S10       29.83S HX  84
AURORA         PTCLDY    76  74  93 S12       29.82F
LANSING*       MOCLDY    78  70  77 S12G17    29.86S HX  80
JOLIET*        CLOUDY    78  76  92 S8        29.84S HX  81
WAUKEGAN       LGT RAIN  75  74  96 S12       29.80F FOG
DUPAGE AIRPORT CLOUDY    76  75  97 S16G26    29.81F
KANKAKEE*      CLOUDY    77  73  88 S10       29.88R
WHEELING       CLOUDY    77  76  96 S13       29.82F
MORRIS*        CLOUDY    76  72  88 S12       29.82F
ROMEOVILLE*    CLOUDY    76  72  87 S9        29.84S
NORTHERLY ISL    N/A     79  70  74 S12         N/A  HX  82
$$

LMZ740>746-170600-
SOUTHERN LAKE MICHIGAN

STATION/POSITION SKY/WX   TEMP    WIND        PRES    VSBY  WAVE
                          AIR SEA DIR/SP/G                  HT/PER
                          (F)     (DEG/KT/KT) (MB)    (MI)  (FT/S)
SOUTHERN BUOY              75 72  110/ 12/ 14 1009.4F         1/ 3
WILMETTE HARBOR            77 73  180/ 12/ 16   N/A           2/ 3
HARRISON CRIB              80     180/ 22/ 25   N/A
CALUMET HARBOR             80     170/ 12/ 16 1010.0F
BURNS HARBOR               80     180/  6/ 16 1011.2F
MICHIGAN CITY              78     150/  8/ 10   N/A
MICHIGAN CITY 6N           78 75  170/ 12/ 16   N/A           1
ST. JOSEPH                 78 74  190/ 12/ 14 1010.3          1
$$

ILZ025>027-034>036-040-047-049-050-058-095>099-170600-
WEST-CENTRAL ILLINOIS

CITY           SKY/WX    TMP DP  RH WIND       PRES   REMARKS
QUINCY         LGT RAIN  71  69  93 S14G26    29.76F
GALESBURG*     CLOUDY    71  68  89 S10       29.80F
MACOMB*        CLOUDY    72  68  87 S6        29.82F
JACKSONVILLE*  CLOUDY    71  68  90 SW10      29.85F
PITTSFIELD*    CLOUDY    71  69  92 S13       29.83F
$$

ILZ028>032-037-038-041>044-048-051>054-059>061-170600-
CENTRAL ILLINOIS

CITY           SKY/WX    TMP DP  RH WIND       PRES   REMARKS
PONTIAC        MOCLDY    74  73  95 S6        29.85F
BLOOMINGTON    CLOUDY    71  69  93 S10       29.87F
DECATUR        CLOUDY    74  71  91 S6        29.88F
PEORIA         PTCLDY    73  70  90 S10       29.82F
LACON*         PTCLDY    74  70  88 S9        29.80S
LINCOLN*       PTCLDY    70  70 100 S6        29.86S
SPRINGFIELD    PTCLDY    73  71  93 SW5       29.85F
TAYLORVILLE    PTCLDY    70  70 100 S3        29.86F
$$

ILZ033-039-045-046-055>057-062-063-170600-
EAST-CENTRAL ILLINOIS

CITY           SKY/WX    TMP DP  RH WIND       PRES   REMARKS
CHAMPAIGN      MOCLDY    72  70  93 SE5       29.90F
RANTOUL*       MOCLDY    75  73  93 SE5       29.89F
MATTOON        PTCLDY    69  69 100 SE5       29.90S
PARIS*         CLOUDY    72  71  97 W7        29.93R
$$

ILZ079-100>102-170600-
SOUTHWEST ILLINOIS

CITY           SKY/WX    TMP DP  RH WIND       PRES   REMARKS
ALTON          CLOUDY    70  69  98 S8G17     29.89F
BELLEVILLE     CLOUDY    72  69  90 SW5       29.91S
CAHOKIA*       CLOUDY    73  69  87 CALM      29.89F
SPARTA*        CLOUDY    71  69  94 S6        29.92F
$$

ILZ064>066-069>071-074>076-080>082-084>086-088>090-092>094-170600-
SOUTH-CENTRAL ILLINOIS

CITY           SKY/WX    TMP DP  RH WIND       PRES   REMARKS
CARBONDALE     MOCLDY    71  71 100 S8        29.92F
CAIRO*         PTCLDY    74  71  92 CALM      29.93F
EFFINGHAM*     CLOUDY    71  71 100 CALM      29.92S
MARION         CLOUDY    73  72  94 S5        29.93F
MT. VERNON     CLOUDY    73  72  96 SW7       29.90F
CENTRALIA*     CLOUDY    73  72  99 S6        29.89F
SALEM*         CLOUDY    74  72  93 SW5       29.90F
METROPOLIS*    PTCLDY    77  75  94 S3        29.94F
$$

ILZ067-068-072-073-078-083-087-091-170600-
SOUTHEAST ILLINOIS

CITY           SKY/WX    TMP DP  RH WIND       PRES   REMARKS
LAWRENCEVILLE  LGT RAIN  75  73  93 S5        29.90F
FLORA*         CLOUDY    74  72  96 S5        29.89F
FAIRFIELD*     CLOUDY    72  72 100 CALM      29.90R
HARRISBURG*    CLOUDY    75  72  91 CALM      29.92F
ROBINSON*      DRIZZLE   72  71  98 SW3       29.92S
CARMI*         CLOUDY    73  72  97 SE6       29.90F
$$

ABBREVIATIONS USED IN REMARKS
   TC - TEMPERATURE IN CELSIUS
  WCI - WIND CHILL INDEX
   HX - HEAT INDEX
  VSB - VISIBILITY
$$





USA.gov is the U.S. government's official web portal to all federal, state and local government web resources and services.